Location: Namasale
(1.5000°N, 32.6167°E)
Time: 17:46:52
(UTC+00:00)

Vanguard 1 Rocket - Pass Details

Date: 26 April 2021
Orbit: 651 x 4225 km, 34.3° (Epoch: 17 May)

Event Time Altitude Azimuth Distance (km) Brightness Sun altitude
Rises 23:56:30 0° 227° (SW) 7,102 - -54.7°
Reaches altitude 10° 00:03:40 10° 211° (SSW) 6,656 - -53.0°
Exits shadow 00:14:22 19° 183° (S) 6,436 11.4 -50.6°
Maximum altitude 00:19:13 20° 169° (S) 6,492 11.5 -49.5°
Drops below altitude 10° 00:36:02 10° 128° (SE) 7,262 12.2 -45.6°
Sets 00:44:24 0° 113° (ESE) 7,908 12.7 -43.6°
